Time,TemperatureF,DewpointF,PressureIn,WindDirection,WindDirectionDegrees,WindSpeedMPH,WindSpeedGustMPH,Humidity,HourlyPrecipIn,Conditions,Clouds,dailyrainin,SoftwareType,DateUTC
2013-03-03 00:00:00,40.1,10.4,30.24,NE,45,0.0,0.0,29,0.00,,---,0.00,VWS V14.01,2013-03-03 06:00:00,
2013-03-03 00:05:00,39.9,10.2,30.24,NE,45,0.0,0.0,29,0.00,,---,0.00,VWS V14.01,2013-03-03 06:05:00,
2013-03-03 00:10:00,39.9,10.2,30.24,NE,45,0.0,0.0,29,0.00,,---,0.00,VWS V14.01,2013-03-03 06:10:00,
2013-03-03 00:15:00,40.1,11.2,30.24,NE,45,0.0,0.0,30,0.00,,---,0.00,VWS V14.01,2013-03-03 06:15:00,
2013-03-03 00:20:00,40.1,11.2,30.24,NE,45,0.0,0.0,30,0.00,,---,0.00,VWS V14.01,2013-03-03 06:20:00,
2013-03-03 00:25:00,40.1,11.2,30.24,NE,45,0.0,0.0,30,0.00,,---,0.00,VWS V14.01,2013-03-03 06:25:00,
2013-03-03 00:30:00,40.1,11.2,30.24,NE,45,0.0,0.0,30,0.00,,---,0.00,VWS V14.01,2013-03-03 06:30:00,
2013-03-03 00:35:00,40.1,11.2,30.24,NE,45,0.0,0.0,30,0.00,,---,0.00,VWS V14.01,2013-03-03 06:35:00,
2013-03-03 00:40:00,40.1,11.2,30.24,NE,45,0.0,0.0,30,0.00,,---,0.00,VWS V14.01,2013-03-03 06:40:00,
2013-03-03 00:45:00,39.9,11.0,30.24,NE,45,0.0,0.0,30,0.00,,---,0.00,VWS V14.01,2013-03-03 06:45:00,
2013-03-03 00:50:00,39.9,11.0,30.24,South,184,2.2,2.2,30,0.00,,---,0.00,VWS V14.01,2013-03-03 06:50:00,
2013-03-03 00:55:00,40.3,12.1,30.24,SSW,197,0.0,0.0,31,0.00,,---,0.00,VWS V14.01,2013-03-03 06:55:00,
2013-03-03 01:00:00,40.5,11.5,30.24,SSW,197,0.0,0.0,30,0.00,,---,0.00,VWS V14.01,2013-03-03 07:00:00,
2013-03-03 01:05:00,40.3,11.3,30.24,SSW,197,0.0,0.0,30,0.00,,---,0.00,VWS V14.01,2013-03-03 07:05:00,
2013-03-03 01:10:00,40.1,11.9,30.24,SSW,197,0.0,0.0,31,0.00,,---,0.00,VWS V14.01,2013-03-03 07:10:00,
2013-03-03 01:15:00,39.7,11.6,30.24,SSW,197,0.0,0.0,31,0.00,,---,0.00,VWS V14.01,2013-03-03 07:15:00,
2013-03-03 01:20:00,39.6,11.4,30.24,SSW,197,0.0,0.0,31,0.00,,---,0.00,VWS V14.01,2013-03-03 07:20:00,
2013-03-03 01:25:00,39.2,11.1,30.24,SSW,197,0.0,0.0,31,0.00,,---,0.00,VWS V14.01,2013-03-03 07:25:00,
2013-03-03 01:30:00,39.0,11.7,30.24,SSW,197,0.0,0.0,32,0.00,,---,0.00,VWS V14.01,2013-03-03 07:30:00,
2013-03-03 01:35:00,38.8,11.5,30.24,SSW,197,0.0,0.0,32,0.00,,---,0.00,VWS V14.01,2013-03-03 07:35:00,
2013-03-03 01:40:00,38.8,12.2,30.24,SSW,197,0.0,0.0,33,0.00,,---,0.00,VWS V14.01,2013-03-03 07:40:00,
2013-03-03 01:45:00,38.7,12.1,30.24,SSW,197,0.0,0.0,33,0.00,,---,0.00,VWS V14.01,2013-03-03 07:45:00,
2013-03-03 01:50:00,38.5,11.9,30.24,SSW,197,0.0,0.0,33,0.00,,---,0.00,VWS V14.01,2013-03-03 07:50:00,
2013-03-03 01:55:00,38.5,12.6,30.24,SSW,197,0.0,0.0,34,0.00,,---,0.00,VWS V14.01,2013-03-03 07:55:00,
2013-03-03 02:00:00,38.1,12.9,30.24,SSW,197,0.0,0.0,35,0.00,,---,0.00,VWS V14.01,2013-03-03 08:00:00,
2013-03-03 02:05:00,38.1,14.2,30.24,SSW,197,0.0,0.0,37,0.00,,---,0.00,VWS V14.01,2013-03-03 08:05:00,
2013-03-03 02:10:00,38.1,14.8,30.24,SSW,197,0.0,0.0,38,0.00,,---,0.00,VWS V14.01,2013-03-03 08:10:00,
2013-03-03 02:15:00,37.9,15.2,30.21,SSW,197,0.0,0.0,39,0.00,,---,0.00,VWS V14.01,2013-03-03 08:15:00,
2013-03-03 02:20:00,37.8,15.0,30.21,SSW,197,0.0,0.0,39,0.00,,---,0.00,VWS V14.01,2013-03-03 08:20:00,
2013-03-03 02:25:00,37.6,14.9,30.21,SSW,197,0.0,0.0,39,0.00,,---,0.00,VWS V14.01,2013-03-03 08:25:00,
2013-03-03 02:30:00,37.6,14.9,30.21,SSW,197,0.0,0.0,39,0.00,,---,0.00,VWS V14.01,2013-03-03 08:30:00,
2013-03-03 02:35:00,37.4,14.7,30.21,SSW,197,0.0,0.0,39,0.00,,---,0.00,VWS V14.01,2013-03-03 08:35:00,
2013-03-03 02:40:00,37.4,14.7,30.21,SSW,197,0.0,0.0,39,0.00,,---,0.00,VWS V14.01,2013-03-03 08:40:00,
2013-03-03 02:45:00,37.6,15.5,30.21,SSW,197,0.0,0.0,40,0.00,,---,0.00,VWS V14.01,2013-03-03 08:45:00,
2013-03-03 02:50:00,37.6,15.5,30.21,SSW,197,0.0,0.0,40,0.00,,---,0.00,VWS V14.01,2013-03-03 08:50:00,
2013-03-03 02:55:00,37.4,15.3,30.21,SSW,197,0.0,0.0,40,0.00,,---,0.00,VWS V14.01,2013-03-03 08:55:00,
2013-03-03 03:00:00,37.4,15.3,30.21,SSW,197,0.0,0.0,40,0.00,,---,0.00,VWS V14.01,2013-03-03 09:00:00,
2013-03-03 03:05:00,37.4,15.3,30.21,SSW,197,0.0,0.0,40,0.00,,---,0.00,VWS V14.01,2013-03-03 09:05:00,
2013-03-03 03:10:00,37.2,15.1,30.21,SSW,197,0.0,0.0,40,0.00,,---,0.00,VWS V14.01,2013-03-03 09:10:00,
2013-03-03 03:15:00,37.0,15.0,30.21,SSW,197,0.0,0.0,40,0.00,,---,0.00,VWS V14.01,2013-03-03 09:15:00,
2013-03-03 03:20:00,37.0,15.0,30.21,SSW,197,0.0,0.0,40,0.00,,---,0.00,VWS V14.01,2013-03-03 09:20:00,
2013-03-03 03:25:00,36.9,14.8,30.21,SSW,197,0.0,0.0,40,0.00,,---,0.00,VWS V14.01,2013-03-03 09:25:00,
2013-03-03 03:30:00,36.7,14.6,30.18,SSW,197,0.0,0.0,40,0.00,,---,0.00,VWS V14.01,2013-03-03 09:30:00,
2013-03-03 03:35:00,36.9,15.4,30.18,SSW,197,0.0,0.0,41,0.00,,---,0.00,VWS V14.01,2013-03-03 09:35:00,
2013-03-03 03:40:00,36.9,15.4,30.18,SSW,197,0.0,0.0,41,0.00,,---,0.00,VWS V14.01,2013-03-03 09:40:00,
2013-03-03 03:45:00,37.0,15.5,30.18,SSW,197,0.0,0.0,41,0.00,,---,0.00,VWS V14.01,2013-03-03 09:45:00,
2013-03-03 03:50:00,37.2,15.7,30.18,SSW,197,0.0,0.0,41,0.00,,---,0.00,VWS V14.01,2013-03-03 09:50:00,
2013-03-03 03:55:00,37.4,15.9,30.18,SSW,197,0.0,0.0,41,0.00,,---,0.00,VWS V14.01,2013-03-03 09:55:00,
2013-03-03 04:00:00,37.4,15.9,30.18,SSW,197,0.0,0.0,41,0.00,,---,0.00,VWS V14.01,2013-03-03 10:00:00,
2013-03-03 04:05:00,37.4,15.9,30.18,SSW,197,0.0,0.0,41,0.00,,---,0.00,VWS V14.01,2013-03-03 10:05:00,
2013-03-03 04:10:00,37.0,15.5,30.18,SSW,197,0.0,0.0,41,0.00,,---,0.00,VWS V14.01,2013-03-03 10:10:00,
2013-03-03 04:15:00,36.9,15.4,30.18,SSW,197,0.0,0.0,41,0.00,,---,0.00,VWS V14.01,2013-03-03 10:15:00,
2013-03-03 04:20:00,36.9,15.4,30.18,SSW,198,2.7,2.7,41,0.00,,---,0.00,VWS V14.01,2013-03-03 10:20:00,
2013-03-03 04:25:00,37.2,16.3,30.18,SSW,198,0.0,0.0,42,0.00,,---,0.00,VWS V14.01,2013-03-03 10:25:00,
2013-03-03 04:30:00,37.4,15.9,30.21,SSW,198,0.0,0.0,41,0.00,,---,0.00,VWS V14.01,2013-03-03 10:30:00,
2013-03-03 04:35:00,37.0,16.1,30.21,SSW,198,0.0,0.0,42,0.00,,---,0.00,VWS V14.01,2013-03-03 10:35:00,
2013-03-03 04:40:00,37.0,16.1,30.21,SSW,198,0.0,0.0,42,0.00,,---,0.00,VWS V14.01,2013-03-03 10:40:00,
2013-03-03 04:45:00,37.0,16.1,30.21,SSW,198,0.0,0.0,42,0.00,,---,0.00,VWS V14.01,2013-03-03 10:45:00,
2013-03-03 04:50:00,37.0,16.1,30.21,SSW,198,0.0,0.0,42,0.00,,---,0.00,VWS V14.01,2013-03-03 10:50:00,
2013-03-03 04:55:00,37.0,16.1,30.21,SSW,198,0.0,0.0,42,0.00,,---,0.00,VWS V14.01,2013-03-03 10:55:00,
2013-03-03 05:00:00,37.0,16.1,30.21,SSW,198,0.0,0.0,42,0.00,,---,0.00,VWS V14.01,2013-03-03 11:00:00,
2013-03-03 05:05:00,37.0,16.1,30.21,SSW,198,0.0,0.0,42,0.00,,---,0.00,VWS V14.01,2013-03-03 11:05:00,
2013-03-03 05:10:00,36.9,15.9,30.21,SSW,198,0.0,0.0,42,0.00,,---,0.00,VWS V14.01,2013-03-03 11:10:00,
2013-03-03 05:15:00,36.9,15.9,30.21,SSW,205,0.0,0.0,42,0.00,,---,0.00,VWS V14.01,2013-03-03 11:15:00,
2013-03-03 05:20:00,36.7,15.8,30.21,SSW,205,0.0,0.0,42,0.00,,---,0.00,VWS V14.01,2013-03-03 11:20:00,
2013-03-03 05:25:00,36.7,15.8,30.21,SSW,205,0.0,0.0,42,0.00,,---,0.00,VWS V14.01,2013-03-03 11:25:00,
2013-03-03 05:30:00,36.5,15.6,30.21,SSW,205,0.0,0.0,42,0.00,,---,0.00,VWS V14.01,2013-03-03 11:30:00,
2013-03-03 05:35:00,36.3,15.4,30.21,SSW,205,0.0,0.0,42,0.00,,---,0.00,VWS V14.01,2013-03-03 11:35:00,
2013-03-03 05:40:00,36.1,15.3,30.21,SSW,205,0.0,0.0,42,0.00,,---,0.00,VWS V14.01,2013-03-03 11:40:00,
2013-03-03 05:45:00,36.0,15.6,30.21,SSW,205,0.0,0.0,43,0.00,,---,0.00,VWS V14.01,2013-03-03 11:45:00,
2013-03-03 05:50:00,35.8,15.5,30.21,SSW,205,0.0,0.0,43,0.00,,---,0.00,VWS V14.01,2013-03-03 11:50:00,
2013-03-03 05:55:00,35.6,15.3,30.21,SSW,205,0.0,0.0,43,0.00,,---,0.00,VWS V14.01,2013-03-03 11:55:00,
2013-03-03 06:00:00,35.6,15.3,30.21,SSW,205,0.0,0.0,43,0.00,,---,0.00,VWS V14.01,2013-03-03 12:00:00,
2013-03-03 06:05:00,35.4,15.2,30.21,SSW,205,0.0,0.0,43,0.00,,---,0.00,VWS V14.01,2013-03-03 12:05:00,
2013-03-03 06:10:00,35.2,15.5,30.21,SSW,205,0.0,0.0,44,0.00,,---,0.00,VWS V14.01,2013-03-03 12:10:00,
2013-03-03 06:15:00,35.1,15.4,30.21,SSW,205,0.0,0.0,44,0.00,,---,0.00,VWS V14.01,2013-03-03 12:15:00,
2013-03-03 06:20:00,35.1,15.4,30.21,SSW,205,0.0,0.0,44,0.00,,---,0.00,VWS V14.01,2013-03-03 12:20:00,
2013-03-03 06:25:00,35.2,16.0,30.21,SSW,205,0.0,0.0,45,0.00,,---,0.00,VWS V14.01,2013-03-03 12:25:00,
2013-03-03 06:30:00,35.4,16.2,30.21,SSW,205,0.0,0.0,45,0.00,,---,0.00,VWS V14.01,2013-03-03 12:30:00,
2013-03-03 06:35:00,35.4,16.2,30.21,SSW,205,0.0,0.0,45,0.00,,---,0.00,VWS V14.01,2013-03-03 12:35:00,
2013-03-03 06:40:00,35.2,16.0,30.21,SSW,205,0.0,0.0,45,0.00,,---,0.00,VWS V14.01,2013-03-03 12:40:00,
2013-03-03 06:45:00,35.2,16.0,30.21,SSW,205,0.0,0.0,45,0.00,,---,0.00,VWS V14.01,2013-03-03 12:45:00,
2013-03-03 06:50:00,35.1,16.4,30.21,SSW,205,0.0,0.0,46,0.00,,---,0.00,VWS V14.01,2013-03-03 12:50:00,
2013-03-03 06:55:00,35.1,16.4,30.21,SSW,205,0.0,0.0,46,0.00,,---,0.00,VWS V14.01,2013-03-03 12:55:00,
2013-03-03 07:00:00,35.1,16.4,30.21,SSW,205,0.0,0.0,46,0.00,,---,0.00,VWS V14.01,2013-03-03 13:00:00,
2013-03-03 07:05:00,35.2,17.0,30.21,SSW,205,0.0,0.0,47,0.00,,---,0.00,VWS V14.01,2013-03-03 13:05:00,
2013-03-03 07:10:00,35.4,17.7,30.21,SSW,205,0.0,0.0,48,0.00,,---,0.00,VWS V14.01,2013-03-03 13:10:00,
2013-03-03 07:15:00,35.4,18.2,30.24,SSW,205,0.0,0.0,49,0.00,,---,0.00,VWS V14.01,2013-03-03 13:15:00,
2013-03-03 07:20:00,35.6,18.3,30.24,SSW,205,0.0,0.0,49,0.00,,---,0.00,VWS V14.01,2013-03-03 13:20:00,
2013-03-03 07:25:00,36.0,19.1,30.24,SSW,205,0.0,0.0,50,0.00,,---,0.00,VWS V14.01,2013-03-03 13:25:00,
2013-03-03 07:30:00,36.3,19.5,30.24,SSW,205,0.0,0.0,50,0.00,,---,0.00,VWS V14.01,2013-03-03 13:30:00,
2013-03-03 07:35:00,36.9,20.4,30.24,SSW,205,0.0,0.0,51,0.00,,---,0.00,VWS V14.01,2013-03-03 13:35:00,
2013-03-03 07:40:00,37.8,21.3,30.24,SSW,205,0.0,0.0,51,0.00,,---,0.00,VWS V14.01,2013-03-03 13:40:00,
2013-03-03 07:45:00,38.3,21.8,30.24,SSW,205,0.0,0.0,51,0.00,,---,0.00,VWS V14.01,2013-03-03 13:45:00,
2013-03-03 07:50:00,39.2,22.1,30.24,SSW,205,0.0,0.0,50,0.00,,---,0.00,VWS V14.01,2013-03-03 13:50:00,
2013-03-03 07:55:00,39.9,21.8,30.24,SSW,205,0.0,0.0,48,0.00,,---,0.00,VWS V14.01,2013-03-03 13:55:00,
2013-03-03 08:00:00,40.6,22.0,30.24,SSE,163,0.0,0.0,47,0.00,,---,0.00,VWS V14.01,2013-03-03 14:00:00,
2013-03-03 08:05:00,41.7,22.0,30.24,ESE,113,0.0,0.0,45,0.00,,---,0.00,VWS V14.01,2013-03-03 14:05:00,
2013-03-03 08:10:00,42.8,21.9,30.24,ESE,113,0.0,0.0,43,0.00,,---,0.00,VWS V14.01,2013-03-03 14:10:00,
2013-03-03 08:15:00,43.9,21.1,30.24,ESE,110,0.0,0.0,40,0.00,,---,0.00,VWS V14.01,2013-03-03 14:15:00,
2013-03-03 08:20:00,45.0,21.5,30.24,ESE,110,0.0,0.0,39,0.00,,---,0.00,VWS V14.01,2013-03-03 14:20:00,
2013-03-03 08:25:00,45.9,21.7,30.24,East,84,2.7,2.7,38,0.00,,---,0.00,VWS V14.01,2013-03-03 14:25:00,
2013-03-03 08:30:00,47.1,20.2,30.24,ESE,113,2.7,2.7,34,0.00,,---,0.00,VWS V14.01,2013-03-03 14:30:00,
2013-03-03 08:35:00,48.0,18.8,30.24,SE,127,4.0,4.0,31,0.00,,---,0.00,VWS V14.01,2013-03-03 14:35:00,
2013-03-03 08:40:00,48.9,18.1,30.24,East,101,5.8,5.8,29,0.00,,---,0.00,VWS V14.01,2013-03-03 14:40:00,
2013-03-03 08:45:00,49.6,17.9,30.24,ESE,102,5.8,5.8,28,0.00,,---,0.00,VWS V14.01,2013-03-03 14:45:00,
2013-03-03 08:50:00,50.4,18.5,30.24,ENE,78,5.8,5.8,28,0.00,,---,0.00,VWS V14.01,2013-03-03 14:50:00,
2013-03-03 08:55:00,51.1,18.3,30.24,ESE,121,7.6,7.6,27,0.00,,---,0.00,VWS V14.01,2013-03-03 14:55:00,
2013-03-03 09:00:00,51.8,18.9,30.24,ESE,117,4.0,4.0,27,0.00,,---,0.00,VWS V14.01,2013-03-03 15:00:00,
2013-03-03 09:05:00,52.5,18.6,30.24,ESE,114,4.0,4.0,26,0.00,,---,0.00,VWS V14.01,2013-03-03 15:05:00,
2013-03-03 09:10:00,53.1,19.1,30.24,ESE,120,5.4,5.4,26,0.00,,---,0.00,VWS V14.01,2013-03-03 15:10:00,
2013-03-03 09:15:00,53.6,18.6,30.24,ESE,119,6.7,6.7,25,0.00,,---,0.00,VWS V14.01,2013-03-03 15:15:00,
2013-03-03 09:20:00,54.0,17.0,30.24,ESE,108,2.7,6.3,23,0.00,,---,0.00,VWS V14.01,2013-03-03 15:20:00,
2013-03-03 09:25:00,54.5,17.5,30.24,ESE,112,4.0,4.0,23,0.00,,---,0.00,VWS V14.01,2013-03-03 15:25:00,
2013-03-03 09:30:00,54.9,17.8,30.24,East,89,4.5,4.5,23,0.00,,---,0.00,VWS V14.01,2013-03-03 15:30:00,
2013-03-03 09:35:00,55.4,15.0,30.24,ESE,113,4.0,6.7,20,0.00,,---,0.00,VWS V14.01,2013-03-03 15:35:00,
2013-03-03 09:40:00,56.1,15.6,30.24,SE,127,3.6,3.6,20,0.00,,---,0.00,VWS V14.01,2013-03-03 15:40:00,
2013-03-03 09:45:00,56.5,15.9,30.24,SE,134,4.9,4.9,20,0.00,,---,0.00,VWS V14.01,2013-03-03 15:45:00,
2013-03-03 09:50:00,57.0,16.4,30.24,SSE,150,0.0,0.0,20,0.00,,---,0.00,VWS V14.01,2013-03-03 15:50:00,
2013-03-03 09:55:00,57.4,12.9,30.24,East,89,0.0,0.0,17,0.00,,---,0.00,VWS V14.01,2013-03-03 15:55:00,
2013-03-03 10:00:00,57.6,13.1,30.24,SE,138,5.8,5.8,17,0.00,,---,0.00,VWS V14.01,2013-03-03 16:00:00,
2013-03-03 10:05:00,58.3,13.7,30.24,SE,145,5.4,5.4,17,0.00,,---,0.00,VWS V14.01,2013-03-03 16:05:00,
2013-03-03 10:10:00,58.8,14.1,30.24,ENE,62,5.4,7.2,17,0.00,,---,0.00,VWS V14.01,2013-03-03 16:10:00,
2013-03-03 10:15:00,59.4,14.6,30.24,ENE,59,2.7,2.7,17,0.00,,---,0.00,VWS V14.01,2013-03-03 16:15:00,
2013-03-03 10:20:00,59.7,14.9,30.24,East,84,4.0,5.4,17,0.00,,---,0.00,VWS V14.01,2013-03-03 16:20:00,
2013-03-03 10:25:00,59.9,15.0,30.24,East,91,3.1,5.8,17,0.00,,---,0.00,VWS V14.01,2013-03-03 16:25:00,
2013-03-03 10:30:00,60.1,15.1,30.21,ESE,108,4.5,8.3,17,0.00,,---,0.00,VWS V14.01,2013-03-03 16:30:00,
2013-03-03 10:35:00,60.3,15.3,30.21,SE,138,4.9,6.3,17,0.00,,---,0.00,VWS V14.01,2013-03-03 16:35:00,
2013-03-03 10:40:00,60.8,14.4,30.21,ESE,115,3.6,6.3,16,0.00,,---,0.00,VWS V14.01,2013-03-03 16:40:00,
2013-03-03 10:45:00,60.8,14.4,30.21,East,87,3.6,5.4,16,0.00,,---,0.00,VWS V14.01,2013-03-03 16:45:00,
2013-03-03 10:50:00,61.0,11.5,30.21,SE,126,2.7,5.8,14,0.00,,---,0.00,VWS V14.01,2013-03-03 16:50:00,
2013-03-03 10:55:00,61.7,15.1,30.21,ENE,72,4.0,7.2,16,0.00,,---,0.00,VWS V14.01,2013-03-03 16:55:00,
2013-03-03 11:00:00,62.1,12.3,30.21,ESE,118,4.0,8.3,14,0.00,,---,0.00,VWS V14.01,2013-03-03 17:00:00,
2013-03-03 11:05:00,62.8,15.9,30.21,SE,134,3.6,5.4,16,0.00,,---,0.00,VWS V14.01,2013-03-03 17:05:00,
2013-03-03 11:10:00,63.3,16.4,30.21,ESE,105,4.9,8.3,16,0.00,,---,0.00,VWS V14.01,2013-03-03 17:10:00,
2013-03-03 11:15:00,63.7,11.9,30.21,East,89,4.0,4.0,13,0.00,,---,0.00,VWS V14.01,2013-03-03 17:15:00,
2013-03-03 11:20:00,63.7,11.9,30.21,South,180,4.0,4.0,13,0.00,,---,0.00,VWS V14.01,2013-03-03 17:20:00,
2013-03-03 11:25:00,64.0,12.2,30.21,SE,136,5.4,5.4,13,0.00,,---,0.00,VWS V14.01,2013-03-03 17:25:00,
2013-03-03 11:30:00,64.4,12.5,30.21,SSE,162,5.4,5.4,13,0.00,,---,0.00,VWS V14.01,2013-03-03 17:30:00,
2013-03-03 11:35:00,64.9,12.9,30.21,SSE,148,3.6,5.8,13,0.00,,---,0.00,VWS V14.01,2013-03-03 17:35:00,
2013-03-03 11:40:00,64.9,12.9,30.21,SSW,197,0.0,2.2,13,0.00,,---,0.00,VWS V14.01,2013-03-03 17:40:00,
2013-03-03 11:45:00,64.6,12.7,30.18,SSE,167,3.1,6.7,13,0.00,,---,0.00,VWS V14.01,2013-03-03 17:45:00,
2013-03-03 11:50:00,64.4,12.5,30.18,SSE,164,0.0,5.8,13,0.00,,---,0.00,VWS V14.01,2013-03-03 17:50:00,
2013-03-03 11:55:00,64.8,12.8,30.18,SSE,155,5.8,5.8,13,0.00,,---,0.00,VWS V14.01,2013-03-03 17:55:00,
2013-03-03 12:00:00,65.5,13.4,30.18,SSW,198,3.1,5.4,13,0.00,,---,0.00,VWS V14.01,2013-03-03 18:00:00,
2013-03-03 12:05:00,65.8,13.6,30.18,South,186,3.1,11.0,13,0.00,,---,0.00,VWS V14.01,2013-03-03 18:05:00,
2013-03-03 12:10:00,66.2,12.1,30.18,SW,217,3.6,5.8,12,0.00,,---,0.00,VWS V14.01,2013-03-03 18:10:00,
2013-03-03 12:15:00,66.4,12.3,30.18,SE,146,8.3,8.3,12,0.00,,---,0.00,VWS V14.01,2013-03-03 18:15:00,
2013-03-03 12:20:00,66.9,12.7,30.18,South,177,4.0,4.9,12,0.00,,---,0.00,VWS V14.01,2013-03-03 18:20:00,
2013-03-03 12:24:00,67.5,13.1,30.18,SSE,163,3.6,5.4,12,0.00,,---,0.00,VWS V14.01,2013-03-03 18:24:00,
2013-03-03 12:29:00,68.0,13.5,30.15,South,189,4.0,5.4,12,0.00,,---,0.00,VWS V14.01,2013-03-03 18:29:00,
2013-03-03 12:35:00,67.8,13.4,30.15,SW,231,0.0,6.3,12,0.00,,---,0.00,VWS V14.01,2013-03-03 18:35:00,
2013-03-03 12:39:00,67.6,13.2,30.15,WSW,253,3.1,7.6,12,0.00,,---,0.00,VWS V14.01,2013-03-03 18:39:00,
2013-03-03 12:44:00,68.2,13.7,30.15,South,179,3.6,4.9,12,0.00,,---,0.00,VWS V14.01,2013-03-03 18:44:00,
2013-03-03 12:49:00,67.8,13.4,30.15,SE,145,8.1,8.3,12,0.00,,---,0.00,VWS V14.01,2013-03-03 18:49:00,
2013-03-03 12:54:00,68.4,13.8,30.15,South,177,4.0,4.0,12,0.00,,---,0.00,VWS V14.01,2013-03-03 18:54:00,
2013-03-03 12:59:00,68.5,13.9,30.12,South,187,2.2,5.8,12,0.00,,---,0.00,VWS V14.01,2013-03-03 18:59:00,
2013-03-03 13:04:00,68.7,14.1,30.12,SSW,197,3.1,8.1,12,0.00,,---,0.00,VWS V14.01,2013-03-03 19:04:00,
2013-03-03 13:09:00,68.9,14.2,30.12,SSE,165,0.0,3.6,12,0.00,,---,0.00,VWS V14.01,2013-03-03 19:09:00,
2013-03-03 13:14:00,69.6,14.8,30.12,ENE,65,8.3,8.3,12,0.00,,---,0.00,VWS V14.01,2013-03-03 19:14:00,
2013-03-03 13:19:00,70.0,15.1,30.12,SSE,154,4.0,7.6,12,0.00,,---,0.00,VWS V14.01,2013-03-03 19:19:00,
2013-03-03 13:24:00,70.3,15.4,30.12,SE,146,5.4,5.4,12,0.00,,---,0.00,VWS V14.01,2013-03-03 19:24:00,
2013-03-03 13:29:00,70.2,15.2,30.12,SSE,167,3.1,4.0,12,0.00,,---,0.00,VWS V14.01,2013-03-03 19:29:00,
2013-03-03 13:34:00,70.0,15.1,30.12,ENE,76,7.6,9.6,12,0.00,,---,0.00,VWS V14.01,2013-03-03 19:34:00,
2013-03-03 13:39:00,70.2,15.2,30.12,East,101,5.4,8.7,12,0.00,,---,0.00,VWS V14.01,2013-03-03 19:39:00,
2013-03-03 13:44:00,70.5,15.5,30.09,South,191,6.3,6.3,12,0.00,,---,0.00,VWS V14.01,2013-03-03 19:44:00,
2013-03-03 13:49:00,70.5,15.5,30.09,SSE,156,8.7,9.6,12,0.00,,---,0.00,VWS V14.01,2013-03-03 19:49:00,
2013-03-03 13:54:00,70.5,15.5,30.09,SE,129,12.8,12.8,12,0.00,,---,0.00,VWS V14.01,2013-03-03 19:54:00,
2013-03-03 13:59:00,70.5,15.5,30.09,SE,136,7.6,8.1,12,0.00,,---,0.00,VWS V14.01,2013-03-03 19:59:00,
2013-03-03 14:04:00,70.5,15.5,30.09,ESE,120,6.3,8.1,12,0.00,,---,0.00,VWS V14.01,2013-03-03 20:04:00,
2013-03-03 14:09:00,70.9,15.8,30.09,SE,141,3.1,5.4,12,0.00,,---,0.00,VWS V14.01,2013-03-03 20:09:00,
2013-03-03 14:14:00,71.1,15.9,30.06,SSE,167,4.0,11.0,12,0.00,,---,0.00,VWS V14.01,2013-03-03 20:14:00,
2013-03-03 14:19:00,71.4,16.2,30.06,ENE,65,5.8,11.0,12,0.00,,---,0.00,VWS V14.01,2013-03-03 20:19:00,
2013-03-03 14:24:00,72.0,14.6,30.06,South,172,6.3,6.3,11,0.00,,---,0.00,VWS V14.01,2013-03-03 20:24:00,
2013-03-03 14:29:00,72.0,14.6,30.06,South,179,8.1,11.9,11,0.00,,---,0.00,VWS V14.01,2013-03-03 20:29:00,
2013-03-03 14:34:00,72.0,14.6,30.06,South,183,3.1,4.0,11,0.00,,---,0.00,VWS V14.01,2013-03-03 20:34:00,
2013-03-03 14:39:00,71.4,16.2,30.06,South,187,3.1,6.3,12,0.00,,---,0.00,VWS V14.01,2013-03-03 20:39:00,
2013-03-03 14:44:00,71.4,16.2,30.06,South,173,6.3,8.1,12,0.00,,---,0.00,VWS V14.01,2013-03-03 20:44:00,
2013-03-03 14:49:00,71.8,14.5,30.06,SSE,147,10.1,11.4,11,0.00,,---,0.00,VWS V14.01,2013-03-03 20:49:00,
2013-03-03 14:54:00,72.0,14.6,30.06,SSE,159,8.3,8.3,11,0.00,,---,0.00,VWS V14.01,2013-03-03 20:54:00,
2013-03-03 14:59:00,72.1,14.8,30.06,SSE,152,9.2,9.2,11,0.00,,---,0.00,VWS V14.01,2013-03-03 20:59:00,
2013-03-03 15:04:00,72.5,15.0,30.06,East,98,10.1,10.1,11,0.00,,---,0.00,VWS V14.01,2013-03-03 21:04:00,
2013-03-03 15:09:00,73.0,15.5,30.06,South,179,5.8,5.8,11,0.00,,---,0.00,VWS V14.01,2013-03-03 21:09:00,
2013-03-03 15:14:00,73.2,15.6,30.06,SE,146,3.6,8.1,11,0.00,,---,0.00,VWS V14.01,2013-03-03 21:14:00,
2013-03-03 15:19:00,72.9,15.3,30.06,SE,129,5.8,5.8,11,0.00,,---,0.00,VWS V14.01,2013-03-03 21:19:00,
2013-03-03 15:24:00,72.9,15.3,30.06,SSE,155,3.6,5.4,11,0.00,,---,0.00,VWS V14.01,2013-03-03 21:24:00,
2013-03-03 15:29:00,72.9,15.3,30.06,SSE,159,2.7,7.6,11,0.00,,---,0.00,VWS V14.01,2013-03-03 21:29:00,
2013-03-03 15:34:00,72.5,15.0,30.06,SSE,147,4.0,10.5,11,0.00,,---,0.00,VWS V14.01,2013-03-03 21:34:00,
2013-03-03 15:39:00,72.1,14.8,30.06,South,188,12.3,12.3,11,0.00,,---,0.00,VWS V14.01,2013-03-03 21:39:00,
2013-03-03 15:44:00,72.1,14.8,30.06,SSE,168,6.3,6.3,11,0.00,,---,0.00,VWS V14.01,2013-03-03 21:44:00,
2013-03-03 15:49:00,72.0,14.6,30.06,SSE,160,5.4,5.4,11,0.00,,---,0.00,VWS V14.01,2013-03-03 21:49:00,
2013-03-03 15:54:00,72.3,14.9,30.06,SE,144,8.3,8.3,11,0.00,,---,0.00,VWS V14.01,2013-03-03 21:54:00,
2013-03-03 15:59:00,72.5,15.0,30.03,SE,141,5.4,5.4,11,0.00,,---,0.00,VWS V14.01,2013-03-03 21:59:00,
2013-03-03 16:04:00,72.0,14.6,30.03,SSE,147,7.6,7.6,11,0.00,,---,0.00,VWS V14.01,2013-03-03 22:04:00,
2013-03-03 16:09:00,72.1,14.8,30.03,SSE,168,8.7,11.0,11,0.00,,---,0.00,VWS V14.01,2013-03-03 22:09:00,
2013-03-03 16:14:00,72.0,14.6,30.03,South,172,5.4,5.8,11,0.00,,---,0.00,VWS V14.01,2013-03-03 22:14:00,
2013-03-03 16:19:00,71.4,16.2,30.03,South,183,6.3,10.5,12,0.00,,---,0.00,VWS V14.01,2013-03-03 22:19:00,
2013-03-03 16:24:00,71.4,16.2,30.03,SE,140,3.1,12.3,12,0.00,,---,0.00,VWS V14.01,2013-03-03 22:24:00,
2013-03-03 16:29:00,71.4,16.2,30.03,South,185,11.0,15.0,12,0.00,,---,0.00,VWS V14.01,2013-03-03 22:29:00,
2013-03-03 16:34:00,71.2,16.1,30.03,South,181,5.8,5.8,12,0.00,,---,0.00,VWS V14.01,2013-03-03 22:34:00,
2013-03-03 16:39:00,71.2,16.1,30.03,SSE,147,8.3,11.0,12,0.00,,---,0.00,VWS V14.01,2013-03-03 22:39:00,
2013-03-03 16:44:00,70.9,15.8,30.03,SE,141,12.8,12.8,12,0.00,,---,0.00,VWS V14.01,2013-03-03 22:44:00,
2013-03-03 16:49:00,70.7,15.6,30.03,East,89,5.8,10.5,12,0.00,,---,0.00,VWS V14.01,2013-03-03 22:49:00,
2013-03-03 16:54:00,70.5,15.5,30.03,SE,130,8.1,12.3,12,0.00,,---,0.00,VWS V14.01,2013-03-03 22:54:00,
2013-03-03 16:59:00,70.3,15.4,30.03,SSE,168,9.6,9.6,12,0.00,,---,0.00,VWS V14.01,2013-03-03 22:59:00,
2013-03-03 17:04:00,69.8,14.9,30.03,ESE,111,11.0,12.3,12,0.00,,---,0.00,VWS V14.01,2013-03-03 23:04:00,
2013-03-03 17:09:00,69.6,20.0,30.03,South,171,4.0,7.2,15,0.00,,---,0.00,VWS V14.01,2013-03-03 23:09:00,
2013-03-03 17:14:00,69.3,19.7,30.03,SSE,165,7.6,10.5,15,0.00,,---,0.00,VWS V14.01,2013-03-03 23:14:00,
2013-03-03 17:19:00,68.9,19.4,30.03,South,176,3.1,6.3,15,0.00,,---,0.00,VWS V14.01,2013-03-03 23:19:00,
2013-03-03 17:24:00,68.5,19.1,30.03,SE,141,3.6,8.1,15,0.00,,---,0.00,VWS V14.01,2013-03-03 23:24:00,
2013-03-03 17:29:00,68.4,19.0,30.03,SSW,201,8.1,8.1,15,0.00,,---,0.00,VWS V14.01,2013-03-03 23:29:00,
2013-03-03 17:34:00,68.4,19.0,30.03,South,176,5.4,5.4,15,0.00,,---,0.00,VWS V14.01,2013-03-03 23:34:00,
2013-03-03 17:39:00,68.0,18.7,30.03,SSE,163,7.6,7.6,15,0.00,,---,0.00,VWS V14.01,2013-03-03 23:39:00,
2013-03-03 17:44:00,67.6,18.4,30.03,South,182,7.2,7.2,15,0.00,,---,0.00,VWS V14.01,2013-03-03 23:44:00,
2013-03-03 17:49:00,67.3,18.1,30.03,South,182,5.4,10.5,15,0.00,,---,0.00,VWS V14.01,2013-03-03 23:49:00,
2013-03-03 17:54:00,67.1,17.9,30.03,South,177,10.5,10.5,15,0.00,,---,0.00,VWS V14.01,2013-03-03 23:54:00,
2013-03-03 17:59:00,66.9,17.8,30.03,SSE,156,6.3,15.4,15,0.00,,---,0.00,VWS V14.01,2013-03-03 23:59:00,
2013-03-03 18:04:00,65.7,21.0,30.03,ESE,106,8.1,12.3,18,0.00,,---,0.00,VWS V14.01,2013-03-04 00:04:00,
2013-03-03 18:09:00,64.6,20.1,30.03,SSE,155,7.2,7.2,18,0.00,,---,0.00,VWS V14.01,2013-03-04 00:09:00,
2013-03-03 18:14:00,64.0,19.7,30.03,SW,216,8.1,8.1,18,0.00,,---,0.00,VWS V14.01,2013-03-04 00:14:00,
2013-03-03 18:19:00,63.7,23.0,30.03,SSE,162,4.0,5.4,21,0.00,,---,0.00,VWS V14.01,2013-03-04 00:19:00,
2013-03-03 18:24:00,63.1,22.6,30.03,South,176,10.5,10.5,21,0.00,,---,0.00,VWS V14.01,2013-03-04 00:24:00,
2013-03-03 18:29:00,63.0,24.6,30.00,East,82,5.4,5.4,23,0.00,,---,0.00,VWS V14.01,2013-03-04 00:29:00,
2013-03-03 18:34:00,62.6,24.3,30.00,SE,136,5.4,8.1,23,0.00,,---,0.00,VWS V14.01,2013-03-04 00:34:00,
2013-03-03 18:39:00,62.2,25.0,30.00,SE,141,5.8,5.8,24,0.00,,---,0.00,VWS V14.01,2013-03-04 00:39:00,
2013-03-03 18:44:00,62.1,24.9,30.00,South,173,4.9,8.3,24,0.00,,---,0.00,VWS V14.01,2013-03-04 00:44:00,
2013-03-03 18:49:00,61.9,24.7,30.00,SSE,159,7.6,7.6,24,0.00,,---,0.00,VWS V14.01,2013-03-04 00:49:00,
2013-03-03 18:54:00,61.5,25.4,30.00,SSE,161,3.6,4.0,25,0.00,,---,0.00,VWS V14.01,2013-03-04 00:54:00,
2013-03-03 18:59:00,61.3,25.2,30.00,SE,124,2.7,5.8,25,0.00,,---,0.00,VWS V14.01,2013-03-04 00:59:00,
2013-03-03 19:04:00,61.0,24.9,30.00,ESE,102,7.6,7.6,25,0.00,,---,0.00,VWS V14.01,2013-03-04 01:04:00,
2013-03-03 19:09:00,60.8,24.8,30.00,ESE,118,3.6,5.4,25,0.00,,---,0.00,VWS V14.01,2013-03-04 01:09:00,
2013-03-03 19:14:00,60.4,25.4,30.00,SSE,150,4.0,8.1,26,0.00,,---,0.00,VWS V14.01,2013-03-04 01:14:00,
2013-03-03 19:19:00,60.3,25.3,30.00,SSE,154,8.7,8.7,26,0.00,,---,0.00,VWS V14.01,2013-03-04 01:19:00,
2013-03-03 19:24:00,60.1,25.1,30.00,SE,143,5.4,8.3,26,0.00,,---,0.00,VWS V14.01,2013-03-04 01:24:00,
2013-03-03 19:29:00,59.9,25.9,30.00,ESE,119,3.1,3.1,27,0.00,,---,0.00,VWS V14.01,2013-03-04 01:29:00,
2013-03-03 19:34:00,59.7,25.7,30.00,SSE,148,3.1,10.1,27,0.00,,---,0.00,VWS V14.01,2013-03-04 01:34:00,
2013-03-03 19:39:00,59.7,26.6,30.00,SE,126,6.3,9.2,28,0.00,,---,0.00,VWS V14.01,2013-03-04 01:39:00,
2013-03-03 19:44:00,59.4,26.3,30.00,SE,145,9.2,9.2,28,0.00,,---,0.00,VWS V14.01,2013-03-04 01:44:00,
2013-03-03 19:49:00,59.4,26.3,30.00,ENE,59,6.3,6.3,28,0.00,,---,0.00,VWS V14.01,2013-03-04 01:49:00,
2013-03-03 19:54:00,59.2,27.0,30.00,SE,138,8.3,8.3,29,0.00,,---,0.00,VWS V14.01,2013-03-04 01:54:00,
2013-03-03 19:59:00,59.0,26.8,30.00,SE,135,5.8,5.8,29,0.00,,---,0.00,VWS V14.01,2013-03-04 01:59:00,
2013-03-03 20:04:00,58.6,27.3,30.00,SE,129,8.1,8.1,30,0.00,,---,0.00,VWS V14.01,2013-03-04 02:04:00,
2013-03-03 20:09:00,58.6,28.1,30.00,ESE,118,3.6,4.9,31,0.00,,---,0.00,VWS V14.01,2013-03-04 02:09:00,
2013-03-03 20:14:00,58.5,28.7,30.00,SE,145,5.8,5.8,32,0.00,,---,0.00,VWS V14.01,2013-03-04 02:14:00,
2013-03-03 20:19:00,58.5,29.5,30.00,SE,140,5.8,5.8,33,0.00,,---,0.00,VWS V14.01,2013-03-04 02:19:00,
2013-03-03 20:24:00,58.3,29.3,30.00,ESE,114,5.8,5.8,33,0.00,,---,0.00,VWS V14.01,2013-03-04 02:24:00,
2013-03-03 20:29:00,58.1,29.9,30.00,SSE,156,4.9,6.3,34,0.00,,---,0.00,VWS V14.01,2013-03-04 02:29:00,
2013-03-03 20:34:00,58.1,29.9,30.00,ESE,106,5.4,6.3,34,0.00,,---,0.00,VWS V14.01,2013-03-04 02:34:00,
2013-03-03 20:39:00,57.9,30.5,30.00,SE,142,8.3,8.3,35,0.00,,---,0.00,VWS V14.01,2013-03-04 02:39:00,
2013-03-03 20:44:00,57.9,30.5,30.00,SE,144,4.9,4.9,35,0.00,,---,0.00,VWS V14.01,2013-03-04 02:44:00,
2013-03-03 20:49:00,57.7,30.3,30.00,East,101,5.4,8.3,35,0.00,,---,0.00,VWS V14.01,2013-03-04 02:49:00,
2013-03-03 20:54:00,57.7,30.3,30.00,ESE,103,5.8,6.3,35,0.00,,---,0.00,VWS V14.01,2013-03-04 02:54:00,
2013-03-03 20:59:00,57.6,30.8,30.00,ESE,116,7.6,7.6,36,0.00,,---,0.00,VWS V14.01,2013-03-04 02:59:00,
2013-03-03 21:04:00,57.4,30.7,30.00,ESE,117,6.3,8.7,36,0.00,,---,0.00,VWS V14.01,2013-03-04 03:04:00,
2013-03-03 21:09:00,57.4,30.7,30.00,SE,130,10.1,10.1,36,0.00,,---,0.00,VWS V14.01,2013-03-04 03:09:00,
2013-03-03 21:14:00,57.4,30.7,30.00,ESE,116,5.4,6.7,36,0.00,,---,0.00,VWS V14.01,2013-03-04 03:14:00,
2013-03-03 21:19:00,57.4,31.3,30.00,SE,137,8.7,8.7,37,0.00,,---,0.00,VWS V14.01,2013-03-04 03:19:00,
2013-03-03 21:24:00,57.2,31.2,30.00,ESE,122,4.0,5.8,37,0.00,,---,0.00,VWS V14.01,2013-03-04 03:24:00,
2013-03-03 21:29:00,57.0,31.7,30.00,SE,130,8.1,8.1,38,0.00,,---,0.00,VWS V14.01,2013-03-04 03:29:00,
2013-03-03 21:34:00,57.0,31.7,30.00,SSE,167,8.1,10.5,38,0.00,,---,0.00,VWS V14.01,2013-03-04 03:34:00,
2013-03-03 21:39:00,57.0,31.7,30.00,SE,136,3.1,4.0,38,0.00,,---,0.00,VWS V14.01,2013-03-04 03:39:00,
2013-03-03 21:44:00,56.8,31.5,30.00,SSE,147,2.7,5.8,38,0.00,,---,0.00,VWS V14.01,2013-03-04 03:44:00,
2013-03-03 21:49:00,56.8,32.2,30.00,SSE,148,5.4,5.4,39,0.00,,---,0.00,VWS V14.01,2013-03-04 03:49:00,
2013-03-03 21:54:00,56.7,32.6,30.00,SE,132,5.8,8.1,40,0.00,,---,0.00,VWS V14.01,2013-03-04 03:54:00,
2013-03-03 21:59:00,56.7,32.6,30.00,SE,146,2.7,2.7,40,0.00,,---,0.00,VWS V14.01,2013-03-04 03:59:00,
2013-03-03 22:04:00,56.7,33.2,30.00,SSE,153,6.3,6.3,41,0.00,,---,0.00,VWS V14.01,2013-03-04 04:04:00,
2013-03-03 22:09:00,56.7,33.2,30.00,SSE,152,3.6,3.6,41,0.00,,---,0.00,VWS V14.01,2013-03-04 04:09:00,
2013-03-03 22:14:00,56.7,33.8,29.97,SE,124,4.0,4.0,42,0.00,,---,0.00,VWS V14.01,2013-03-04 04:14:00,
2013-03-03 22:19:00,56.7,34.4,29.97,SE,142,3.1,5.4,43,0.00,,---,0.00,VWS V14.01,2013-03-04 04:19:00,
2013-03-03 22:24:00,56.5,34.3,29.97,SE,146,11.0,11.0,43,0.00,,---,0.00,VWS V14.01,2013-03-04 04:24:00,
2013-03-03 22:29:00,56.5,34.3,29.97,ESE,123,3.6,5.4,43,0.00,,---,0.00,VWS V14.01,2013-03-04 04:29:00,
2013-03-03 22:34:00,56.5,34.8,29.97,SE,142,4.9,4.9,44,0.00,,---,0.00,VWS V14.01,2013-03-04 04:34:00,
2013-03-03 22:39:00,56.5,35.4,29.97,ESE,121,8.3,8.3,45,0.00,,---,0.00,VWS V14.01,2013-03-04 04:39:00,
2013-03-03 22:44:00,56.3,35.2,29.97,ESE,105,4.0,4.0,45,0.00,,---,0.00,VWS V14.01,2013-03-04 04:44:00,
2013-03-03 22:49:00,56.3,35.2,29.97,ESE,114,6.3,6.3,45,0.00,,---,0.00,VWS V14.01,2013-03-04 04:49:00,
2013-03-03 22:54:00,56.3,35.8,29.97,ESE,123,3.6,5.4,46,0.00,,---,0.00,VWS V14.01,2013-03-04 04:54:00,
2013-03-03 22:59:00,56.3,35.8,29.97,SE,130,3.1,4.9,46,0.00,,---,0.00,VWS V14.01,2013-03-04 04:59:00,
2013-03-03 23:00:00,56.3,35.8,29.97,East,98,3.1,4.9,46,0.00,,---,0.00,VWS V14.01,2013-03-04 05:00:00,
2013-03-03 23:05:00,56.3,35.8,29.97,SE,135,8.3,8.3,46,0.00,,---,0.00,VWS V14.01,2013-03-04 05:05:00,
2013-03-03 23:10:00,56.3,35.8,29.97,ESE,112,11.0,11.0,46,0.00,,---,0.00,VWS V14.01,2013-03-04 05:10:00,
2013-03-03 23:15:00,56.3,36.3,29.97,SSE,155,3.6,4.0,47,0.00,,---,0.00,VWS V14.01,2013-03-04 05:15:00,
2013-03-03 23:20:00,56.3,36.3,29.97,SE,146,3.1,5.8,47,0.00,,---,0.00,VWS V14.01,2013-03-04 05:20:00,
2013-03-03 23:25:00,56.3,36.3,29.97,SE,124,5.8,5.8,47,0.00,,---,0.00,VWS V14.01,2013-03-04 05:25:00,
2013-03-03 23:30:00,56.3,36.3,29.97,ESE,107,4.9,4.9,47,0.00,,---,0.00,VWS V14.01,2013-03-04 05:30:00,
2013-03-03 23:35:00,56.1,36.7,29.97,SSE,150,4.0,5.4,48,0.00,,---,0.00,VWS V14.01,2013-03-04 05:35:00,
2013-03-03 23:40:00,56.1,36.7,29.97,ESE,111,5.4,5.4,48,0.00,,---,0.00,VWS V14.01,2013-03-04 05:40:00,
2013-03-03 23:45:00,56.1,36.7,29.94,SE,135,3.6,3.6,48,0.00,,---,0.00,VWS V14.01,2013-03-04 05:45:00,
2013-03-03 23:50:00,55.9,36.5,29.94,SE,136,5.8,8.3,48,0.00,,---,0.00,VWS V14.01,2013-03-04 05:50:00,
2013-03-03 23:55:00,55.9,37.1,29.94,SE,130,3.1,4.9,49,0.00,,---,0.00,VWS V14.01,2013-03-04 05:55:00,